PAL100 RPMD-RPLC

Flight info

Callsign PAL100
Flight time N/A
Altitude 40000
Route JOFER3P JOFER W8 MCT W11 MIA DCT RAYAT RAYAT3P
Aircraft B744/H-SDE3FGHIM1M2RWXY/LB1

Departure

Time 2026-05-07 11:48
Airport Francisco Bangoy International Airport (RPMD)

Arrival

Time N/A
Airport Clark International Airport / Clark Air Base (RPLC)
Time Latitude Longitude Altitude Speed Heading
2026-05-07 11:25 7.12948 125.64545 109 ft 0 kts 319°
2026-05-07 11:37 7.12941 125.64551 109 ft 2 kts 319°
2026-05-07 11:37 7.12929 125.64562 109 ft 2 kts 319°
2026-05-07 11:37 7.12917 125.64572 109 ft 2 kts 320°
2026-05-07 11:38 7.12905 125.64582 109 ft 2 kts 320°
2026-05-07 11:38 7.12894 125.64593 109 ft 2 kts 304°
2026-05-07 11:38 7.12887 125.64609 109 ft 2 kts 278°
2026-05-07 11:38 7.12888 125.64624 109 ft 2 kts 253°
2026-05-07 11:39 7.12892 125.64634 109 ft 1 kts 240°
2026-05-07 11:39 7.12893 125.64636 109 ft 0 kts 240°
2026-05-07 11:42 7.12868 125.64598 109 ft 17 kts 233°
2026-05-07 11:42 7.12795 125.64511 109 ft 0 kts 227°
2026-05-07 11:43 7.12782 125.64497 109 ft 11 kts 227°
2026-05-07 11:43 7.12706 125.64435 109 ft 9 kts 159°
2026-05-07 11:43 7.12603 125.64520 109 ft 24 kts 138°
2026-05-07 11:43 7.12614 125.64650 109 ft 26 kts 45°
2026-05-07 11:44 7.12750 125.64812 109 ft 31 kts 51°
2026-05-07 11:44 7.12884 125.64961 109 ft 26 kts 50°
2026-05-07 11:44 7.12998 125.65097 109 ft 24 kts 50°
2026-05-07 11:44 7.13105 125.65215 109 ft 22 kts 46°
2026-05-07 11:45 7.13204 125.65330 109 ft 21 kts 47°
2026-05-07 11:45 7.13296 125.65442 109 ft 19 kts 42°
2026-05-07 11:45 7.13395 125.65504 109 ft 15 kts 23°
2026-05-07 11:45 7.13468 125.65549 109 ft 7 kts 54°
2026-05-07 11:46 7.13444 125.65578 109 ft 7 kts 182°
2026-05-07 11:46 7.13403 125.65558 109 ft 7 kts 221°
2026-05-07 11:46 7.13371 125.65526 109 ft 6 kts 230°
2026-05-07 11:46 7.13353 125.65503 109 ft 6 kts 230°
2026-05-07 11:47 7.13326 125.65471 109 ft 6 kts 230°
2026-05-07 11:47 7.13162 125.65275 109 ft 85 kts 230°
2026-05-07 11:47 7.12778 125.64828 110 ft 156 kts 229°
2026-05-07 11:48 7.11557 125.63424 624 ft 214 kts 229°
2026-05-07 11:48 7.10884 125.62649 1276 ft 221 kts 231°
2026-05-07 11:48 7.10199 125.61253 2125 ft 234 kts 258°
2026-05-07 11:48 7.10314 125.59535 2633 ft 263 kts 286°
2026-05-07 11:49 7.11263 125.57856 2914 ft 299 kts 308°
2026-05-07 11:49 7.12760 125.56374 3783 ft 288 kts 321°
2026-05-07 11:49 7.14245 125.55162 3969 ft 268 kts 322°
2026-05-07 11:49 7.15687 125.54016 3919 ft 259 kts 322°
2026-05-07 11:50 7.17107 125.52894 4053 ft 270 kts 322°
2026-05-07 11:50 7.18642 125.51679 4134 ft 297 kts 322°
2026-05-07 11:50 7.20391 125.50291 4054 ft 303 kts 322°
2026-05-07 11:50 7.22056 125.48969 4188 ft 301 kts 322°
2026-05-07 11:51 7.23686 125.47675 4442 ft 303 kts 322°
2026-05-07 11:51 7.25369 125.46340 4700 ft 305 kts 322°
2026-05-07 11:51 7.27049 125.45004 4952 ft 305 kts 322°
2026-05-07 11:51 7.28715 125.43681 5202 ft 306 kts 322°
2026-05-07 11:52 7.30410 125.42335 5458 ft 307 kts 322°
2026-05-07 11:52 7.32066 125.41020 5706 ft 306 kts 322°
2026-05-07 11:52 7.33839 125.39782 5952 ft 307 kts 332°
2026-05-07 11:52 7.35897 125.38877 6223 ft 308 kts 340°
2026-05-07 11:53 7.37922 125.38195 6472 ft 311 kts 344°
2026-05-07 11:53 7.39999 125.37599 6723 ft 312 kts 346°
2026-05-07 11:53 7.42102 125.37045 6974 ft 313 kts 347°
2026-05-07 11:53 7.44219 125.36488 7226 ft 314 kts 347°
2026-05-07 11:54 7.46325 125.35923 7476 ft 315 kts 347°
2026-05-07 11:54 7.48432 125.35352 7735 ft 313 kts 346°
2026-05-07 11:54 7.50539 125.34775 7985 ft 311 kts 346°
2026-05-07 11:54 7.52622 125.34202 8235 ft 310 kts 346°
2026-05-07 11:55 7.54704 125.33627 8486 ft 312 kts 346°
2026-05-07 11:55 7.56811 125.33044 8737 ft 313 kts 346°
2026-05-07 11:55 7.58934 125.32456 8990 ft 315 kts 346°
2026-05-07 11:55 7.61059 125.31866 9244 ft 316 kts 346°
2026-05-07 11:56 7.63175 125.31279 9492 ft 317 kts 346°
2026-05-07 11:56 7.65313 125.30685 9746 ft 318 kts 346°
2026-05-07 11:56 7.67437 125.30097 9994 ft 317 kts 346°
2026-05-07 11:56 7.69574 125.29504 10247 ft 324 kts 346°
2026-05-07 11:57 7.71880 125.28863 10517 ft 354 kts 346°
2026-05-07 11:57 7.74323 125.28184 10774 ft 383 kts 346°
2026-05-07 11:57 7.77016 125.27436 11038 ft 410 kts 346°
2026-05-07 11:57 7.79815 125.26656 11291 ft 423 kts 346°
2026-05-07 11:58 7.82685 125.25858 11544 ft 428 kts 346°
2026-05-07 11:58 7.85593 125.25049 11798 ft 428 kts 346°
2026-05-07 11:58 7.88457 125.24251 12046 ft 430 kts 346°
2026-05-07 11:58 7.91336 125.23450 12298 ft 432 kts 346°
2026-05-07 11:59 7.94268 125.22634 12549 ft 435 kts 346°
2026-05-07 11:59 7.97144 125.21668 12800 ft 435 kts 339°
2026-05-07 11:59 7.99909 125.20430 13051 ft 437 kts 335°
2026-05-07 11:59 8.02610 125.19043 13301 ft 438 kts 333°
2026-05-07 12:00 8.05315 125.17571 13554 ft 440 kts 333°
2026-05-07 12:00 8.08007 125.16123 13803 ft 442 kts 333°
2026-05-07 12:00 8.10743 125.14673 14058 ft 440 kts 333°
2026-05-07 12:00 8.13458 125.13241 14309 ft 438 kts 332°
2026-05-07 12:01 8.16152 125.11825 14559 ft 439 kts 332°
2026-05-07 12:01 8.18901 125.10381 14812 ft 441 kts 333°
2026-05-07 12:01 8.21624 125.08952 15062 ft 443 kts 333°
2026-05-07 12:01 8.24400 125.07495 15316 ft 445 kts 333°
2026-05-07 12:02 8.27126 125.06065 15564 ft 447 kts 333°
2026-05-07 12:02 8.29883 125.04619 15814 ft 449 kts 333°
2026-05-07 12:02 8.32676 125.03155 16066 ft 451 kts 333°
2026-05-07 12:02 8.35484 125.01679 16318 ft 453 kts 333°
2026-05-07 12:03 8.38301 125.00213 16570 ft 456 kts 333°
2026-05-07 12:03 8.41136 124.98735 16821 ft 457 kts 333°
2026-05-07 12:03 8.43960 124.97263 17071 ft 459 kts 333°
2026-05-07 12:03 8.46792 124.95785 17322 ft 460 kts 333°
2026-05-07 12:04 8.48674 124.94803 17488 ft 461 kts 333°
2026-05-07 12:04 8.51539 124.93309 17739 ft 462 kts 333°
2026-05-07 12:04 8.54474 124.91780 17997 ft 464 kts 333°
2026-05-07 12:04 8.57434 124.90235 18254 ft 466 kts 333°
2026-05-07 12:05 8.60350 124.88713 18507 ft 466 kts 333°
2026-05-07 12:05 8.62447 124.87617 18690 ft 467 kts 333°
2026-05-07 12:05 8.65389 124.86079 18944 ft 469 kts 333°
2026-05-07 12:05 8.68256 124.84580 19192 ft 471 kts 333°
2026-05-07 12:06 8.71172 124.83056 19443 ft 472 kts 333°
2026-05-07 12:06 8.74101 124.81524 19694 ft 474 kts 333°
2026-05-07 12:06 8.77023 124.79997 19944 ft 476 kts 333°
2026-05-07 12:06 8.79963 124.78458 20193 ft 479 kts 333°
2026-05-07 12:07 8.82997 124.76878 20449 ft 483 kts 333°
2026-05-07 12:07 8.85977 124.75326 20699 ft 484 kts 333°
2026-05-07 12:07 8.88980 124.73760 20950 ft 485 kts 333°
2026-05-07 12:07 8.91983 124.72193 21200 ft 487 kts 333°
2026-05-07 12:08 8.95004 124.70615 21451 ft 489 kts 333°
2026-05-07 12:08 8.98030 124.69034 21701 ft 492 kts 334°
2026-05-07 12:08 9.01099 124.67432 21949 ft 498 kts 334°
2026-05-07 12:08 9.04197 124.65813 22200 ft 502 kts 334°
2026-05-07 12:09 9.07342 124.64166 22452 ft 507 kts 334°
2026-05-07 12:09 9.10450 124.62537 22700 ft 511 kts 334°
2026-05-07 12:09 9.13611 124.60880 22951 ft 511 kts 334°
2026-05-07 12:09 9.16823 124.59196 23203 ft 514 kts 334°
2026-05-07 12:10 9.19974 124.57543 23451 ft 519 kts 334°
2026-05-07 12:10 9.23168 124.55868 23704 ft 516 kts 334°
2026-05-07 12:10 9.26379 124.54183 23957 ft 514 kts 334°
2026-05-07 12:10 9.29591 124.52500 24210 ft 517 kts 334°
2026-05-07 12:11 9.32863 124.50787 24463 ft 521 kts 334°
2026-05-07 12:11 9.36006 124.49138 24707 ft 524 kts 334°
2026-05-07 12:11 9.39283 124.47418 24960 ft 528 kts 334°
2026-05-07 12:11 9.42557 124.45698 25210 ft 531 kts 334°
2026-05-07 12:12 9.45865 124.43960 25469 ft 524 kts 334°
2026-05-07 12:12 9.49095 124.42262 25719 ft 522 kts 334°
2026-05-07 12:12 9.52310 124.40572 25970 ft 520 kts 334°
2026-05-07 12:12 9.55519 124.38886 26221 ft 519 kts 334°
2026-05-07 12:13 9.58726 124.37196 26471 ft 519 kts 334°
2026-05-07 12:13 9.60888 124.36056 26640 ft 520 kts 334°
2026-05-07 12:13 9.65374 124.33688 26990 ft 521 kts 334°
2026-05-07 12:13 9.68620 124.31979 27247 ft 513 kts 334°
2026-05-07 12:14 9.70730 124.30865 27415 ft 510 kts 333°
2026-05-07 12:14 9.74229 124.29017 27693 ft 509 kts 333°
2026-05-07 12:14 9.75335 124.28432 27781 ft 509 kts 333°